[[{"header":{"parameterUnit":"m.s-1","parameterCategory":1,"la1":30.2991,"la2":30.254,"lo1":-89.0895,"lo2":-89.0444,"dy":0.0017,"dx":0.0017,"nx":28,"ny":28,"refTime":"2026-02-25T09:00:00:Z","depth":0,"parameterNumber":2,"parameterNumberName":"U-component_of_WINDS"},"data":[0,0,0,0,0,0,0,0,0,0,0,0,0,0,0,0,0,0,0,0,0,0,0,0,0,0,0,0,0,0,0,0,0,0,0,0,0,0,0,0,0,0,0,0,0,0,0,0,0,0,0,0,0,0,0,0,0,0,-1.0686,-1.0687,0,-1.0731,-1.0732,-1.0732,-1.0757,-1.0757,-1.0757,-1.0757,-1.0801,-1.0802,-1.0804,0,0,0,0,0,0,0,0,0,0,0,0,0,-1.0619,-1.062,-1.0686,-1.0687,-1.0687,-1.0731,-1.0732,-1.0732,-1.0757,-1.0757,-1.0757,-1.0758,-1.0801,-1.0802,-1.0804,0,0,0,0,0,0,0,0,0,0,0,0,0,-1.0655,-1.0621,-1.0686,-1.0705,-1.0707,-1.0731,-1.0732,-1.0732,-1.0757,-1.0757,-1.0757,-1.0758,-1.0801,-1.0802,-1.0804,-1.0811,0,0,-1.0809,-1.081,0,0,0,0,0,0,0,0,-1.0653,-1.0657,-1.0702,-1.0704,-1.0706,-1.0739,-1.0724,-1.0759,-1.0757,-1.0738,-1.0757,-1.0758,-1.078,-1.0784,-1.0792,-1.0813,-1.0815,-1.0809,-1.081,-1.0811,-1.0811,0,0,0,0,0,0,0,-1.065,-1.0655,-1.0704,-1.0702,-1.0705,-1.071,-1.0716,-1.0731,-1.0758,-1.074,-1.0742,-1.0747,-1.0782,-1.079,-1.0793,-1.0816,-1.0809,-1.081,-1.0811,-1.0812,-1.0845,-1.0845,0,0,0,0,0,0,-1.0645,-1.0653,-1.0702,-1.0705,-1.0679,-1.0712,-1.0717,-1.0728,-1.0758,-1.0763,-1.0747,-1.0748,-1.0787,-1.0791,-1.0795,-1.0805,-1.0811,-1.0812,-1.0813,-1.0845,-1.0845,-1.0845,0,0,0,0,0,0,-1.0643,-1.0649,-1.0701,-1.068,-1.0687,-1.0713,-1.0724,-1.0729,-1.0738,-1.0763,-1.0768,-1.0751,-1.0787,-1.0792,-1.0807,-1.0807,-1.0813,-1.0814,-1.0845,-1.0845,-1.0845,-1.0825,0,0,0,0,0,0,-1.0641,-1.0648,-1.0652,-1.068,-1.0688,-1.0713,-1.0725,-1.073,-1.0741,-1.0742,-1.0768,-1.0772,-1.0788,-1.0804,-1.0809,-1.0809,-1.0816,-1.0845,-1.0845,-1.0845,-1.0826,-1.0825,-1.0823,0,0,0,0,0,-1.0639,-1.0645,-1.0652,-1.0658,-1.0693,-1.0713,-1.0717,-1.0736,-1.074,-1.0744,-1.076,-1.0771,-1.0806,-1.0806,-1.0811,-1.0812,-1.0845,-1.0845,-1.0845,-1.0827,-1.0825,-1.0823,0,0,0,0,0,0,-1.0617,-1.0649,-1.0658,-1.0673,-1.069,-1.0717,-1.0722,-1.0734,-1.0749,-1.075,-1.0772,-1.0778,-1.079,-1.0802,-1.0801,-1.082,-1.0827,-1.0827,-1.0811,-1.081,-1.0808,-1.0805,-1.0817,0,0,0,0,0,-1.0613,-1.0628,-1.0655,-1.0665,-1.0674,-1.0696,-1.0706,-1.0718,-1.0737,-1.0744,-1.0761,-1.0778,-1.0793,-1.0802,-1.0817,-1.0828,-1.0833,-1.0831,-1.083,-1.0828,-1.0829,-1.0834,-1.0833,-1.0844,-1.0844,-1.0844,0,0,-1.0607,-1.0626,-1.0634,-1.0661,-1.0676,-1.0689,-1.0702,-1.0716,-1.0726,-1.0746,-1.0761,-1.0774,-1.0794,-1.0807,-1.0813,-1.0817,-1.0827,-1.0828,-1.0827,-1.0828,-1.0834,-1.0833,-1.0832,-1.0844,-1.0844,-1.0844,0,0,-1.0602,-1.0619,-1.0629,-1.0644,-1.0666,-1.0681,-1.0683,-1.0709,-1.0718,-1.0734,-1.0749,-1.076,-1.0785,-1.0798,-1.0808,-1.0807,-1.0818,-1.0811,-1.0804,-1.0809,-1.0808,-1.0808,-1.0807,-1.0806,-1.0812,-1.0812,-1.0812,0,-1.0592,-1.0613,-1.0633,-1.0646,-1.0657,-1.0676,-1.0686,-1.0698,-1.0724,-1.0731,-1.0735,-1.0766,-1.0781,-1.0797,-1.0796,-1.0804,-1.0807,-1.0809,-1.0807,-1.0806,-1.0806,-1.0805,-1.0805,-1.0811,-1.0811,-1.0811,-1.0811,0,-1.0598,-1.0612,-1.0618,-1.0643,-1.0654,-1.0665,-1.0686,-1.0695,-1.0706,-1.072,-1.0735,-1.0754,-1.0772,-1.0777,-1.0788,-1.0794,-1.0795,-1.0803,-1.081,-1.0804,-1.0803,-1.0803,-1.0809,-1.081,-1.081,-1.081,0,0,-1.0582,-1.0616,-1.0618,-1.0629,-1.0654,-1.0665,-1.0677,-1.0695,-1.0702,-1.0719,-1.0728,-1.0748,-1.0755,-1.0767,-1.0779,-1.0784,-1.0781,-1.0791,-1.0792,-1.0788,-1.0787,-1.0781,-1.0781,-1.0788,-1.0788,-1.0788,-1.0786,0,-1.058,-1.0603,-1.062,-1.0635,-1.0648,-1.0666,-1.0675,-1.0691,-1.0704,-1.0716,-1.0731,-1.0744,-1.0753,-1.076,-1.0765,-1.078,-1.0781,-1.0781,-1.0796,-1.0797,-1.0791,-1.0781,-1.0774,-1.0771,-1.0786,-1.0786,-1.0786,0,-1.0582,-1.0598,-1.0615,-1.0638,-1.0644,-1.0652,-1.067,-1.0682,-1.0699,-1.0709,-1.0721,-1.0734,-1.0745,-1.0751,-1.0767,-1.0766,-1.0774,-1.0782,-1.0782,-1.0784,-1.0791,-1.0782,-1.0771,-1.077,-1.0786,-1.0786,-1.0786,0,-1.0568,-1.0593,-1.0606,-1.0615,-1.0643,-1.0648,-1.0659,-1.0678,-1.0687,-1.0702,-1.0708,-1.0724,-1.0733,-1.0745,-1.0761,-1.0764,-1.0775,-1.0783,-1.0782,-1.0782,-1.0784,-1.0783,-1.0773,-1.0789,-1.0789,-1.0789,-1.0789,0,-1.0564,-1.0574,-1.06,-1.0608,-1.0618,-1.0638,-1.0647,-1.066,-1.0676,-1.0686,-1.0702,-1.0711,-1.0732,-1.0743,-1.0756,-1.0766,-1.077,-1.0777,-1.0781,-1.0776,-1.0775,-1.0781,-1.0781,-1.0789,-1.0789,-1.0789,-1.0789,0,-1.055,-1.0569,-1.0584,-1.0608,-1.0614,-1.0621,-1.0641,-1.0649,-1.0662,-1.0675,-1.0679,-1.07,-1.0713,-1.0731,-1.075,-1.0759,-1.0768,-1.0773,-1.0762,-1.0764,-1.0762,-1.0761,-1.0755,-1.0754,-1.0771,-1.077,-1.077,0,-1.0547,-1.0555,-1.0579,-1.0587,-1.0598,-1.0611,-1.0621,-1.064,-1.0649,-1.0669,-1.0674,-1.0689,-1.0702,-1.0723,-1.074,-1.0754,-1.0759,-1.0756,-1.0762,-1.0756,-1.0759,-1.0758,-1.0758,-1.0755,-1.0754,-1.0754,-1.0754,0,-1.0539,-1.0548,-1.0561,-1.0578,-1.0589,-1.0602,-1.0617,-1.0622,-1.0644,-1.0653,-1.0667,-1.0677,-1.0697,-1.0711,-1.0728,-1.0738,-1.0749,-1.0752,-1.0752,-1.0748,-1.074,-1.0744,-1.0757,-1.0752,-1.0752,-1.0752,-1.0752,-1.0752,-1.053,-1.0537,-1.0556,-1.057,-1.0582,-1.0595,-1.0603,-1.0618,-1.063,-1.0648,-1.0658,-1.0671,-1.0688,-1.0711,-1.0721,-1.0731,-1.0736,-1.0737,-1.0737,-1.0737,-1.0735,-1.0739,-1.0735,-1.0735,-1.0735,-1.0735,-1.0735,0,-1.0523,-1.0535,-1.0548,-1.0567,-1.0578,-1.0588,-1.0604,-1.0612,-1.0624,-1.0638,-1.0651,-1.0666,-1.068,-1.0697,-1.0712,-1.0716,-1.0722,-1.072,-1.0719,-1.0721,-1.0731,-1.0728,-1.0715,-1.0715,-1.0715,-1.0715,-1.0715,-1.0715,-1.052,-1.0532,-1.0542,-1.056,-1.0572,-1.0586,-1.0594,-1.0605,-1.0617,-1.0634,-1.0645,-1.0657,-1.0672,-1.0687,-1.07,-1.0704,-1.0709,-1.0705,-1.0711,-1.0719,-1.0721,-1.0723,-1.0721,-1.0706,-1.0706,-1.0701,-1.0701,-1.0701]},{"header":{"parameterUnit":"m.s-1","parameterCategory":1,"la1":30.2991,"la2":30.254,"lo1":-89.0895,"lo2":-89.0444,"dy":0.0017,"dx":0.0017,"nx":28,"ny":28,"refTime":"2026-02-25T09:00:00:Z","depth":0,"parameterNumber":3,"parameterNumberName":"V-component_of_WINDS"},"data":[0,0,0,0,0,0,0,0,0,0,0,0,0,0,0,0,0,0,0,0,0,0,0,0,0,0,0,0,0,0,0,0,0,0,0,0,0,0,0,0,0,0,0,0,0,0,0,0,0,0,0,0,0,0,0,0,0,0,2.8262,2.8262,0,2.8318,2.8319,2.832,2.8332,2.8332,2.8331,2.8331,2.8388,2.839,2.8392,0,0,0,0,0,0,0,0,0,0,0,0,0,2.8165,2.8166,2.8262,2.8262,2.8263,2.8318,2.8319,2.832,2.8332,2.8332,2.8331,2.8331,2.8388,2.839,2.8392,0,0,0,0,0,0,0,0,0,0,0,0,0,2.8212,2.8167,2.8261,2.8276,2.8278,2.8318,2.8319,2.832,2.8332,2.8332,2.8331,2.8331,2.8387,2.839,2.8392,2.8422,0,0,2.8401,2.8402,0,0,0,0,0,0,0,0,2.821,2.8216,2.8273,2.8275,2.8277,2.8318,2.8306,2.8354,2.8333,2.8312,2.8331,2.833,2.8365,2.837,2.8382,2.8425,2.8427,2.8401,2.8403,2.8404,2.8405,0,0,0,0,0,0,0,2.8206,2.8214,2.8284,2.8274,2.8276,2.828,2.8286,2.8315,2.8341,2.8313,2.8314,2.8321,2.8366,2.8379,2.8383,2.8428,2.8401,2.8404,2.8406,2.8407,2.8501,2.8501,0,0,0,0,0,0,2.8201,2.8211,2.8282,2.8286,2.8241,2.8282,2.8289,2.8305,2.8341,2.8346,2.8321,2.8321,2.8374,2.838,2.8385,2.8424,2.8404,2.8407,2.8409,2.85,2.8501,2.8502,0,0,0,0,0,0,2.8198,2.8207,2.828,2.8249,2.8258,2.8284,2.8303,2.8307,2.8319,2.8347,2.8352,2.833,2.8374,2.8381,2.8413,2.8426,2.8408,2.8411,2.8499,2.85,2.8501,2.85,0,0,0,0,0,0,2.8196,2.8206,2.8217,2.8249,2.826,2.8307,2.8303,2.8308,2.8324,2.8325,2.8356,2.836,2.8374,2.8409,2.8416,2.843,2.8413,2.8498,2.8499,2.8501,2.8499,2.8501,2.8503,0,0,0,0,0,2.8192,2.8214,2.8218,2.8226,2.8275,2.8308,2.8314,2.833,2.8325,2.8337,2.8355,2.8359,2.8423,2.8412,2.842,2.8435,2.8497,2.8499,2.8501,2.8499,2.8501,2.8503,0,0,0,0,0,0,2.8183,2.8219,2.8223,2.8256,2.8279,2.831,2.8325,2.8331,2.8356,2.8355,2.8373,2.838,2.8411,2.8426,2.8413,2.8466,2.846,2.8464,2.8456,2.8458,2.846,2.8456,2.8415,0,0,0,0,0,2.8185,2.8209,2.8239,2.8265,2.8276,2.8299,2.8314,2.8324,2.8348,2.8358,2.8378,2.8401,2.8427,2.8443,2.8468,2.8501,2.8509,2.8515,2.8517,2.8519,2.8522,2.8542,2.8546,2.8507,2.8507,2.8507,0,0,2.8189,2.8211,2.8225,2.8264,2.8283,2.8308,2.8307,2.8333,2.8352,2.8362,2.8394,2.841,2.8437,2.847,2.8486,2.8484,2.8534,2.8521,2.8522,2.8524,2.8545,2.8548,2.8551,2.8509,2.8508,2.8508,0,0,2.8209,2.8228,2.8253,2.8272,2.8301,2.8316,2.8322,2.8353,2.8364,2.8397,2.8405,2.8428,2.8471,2.8491,2.8506,2.8536,2.8541,2.8543,2.8553,2.8573,2.8576,2.8579,2.8591,2.8595,2.8546,2.8546,2.8546,0,2.821,2.8248,2.8265,2.8291,2.8308,2.8319,2.8345,2.8363,2.8398,2.841,2.8407,2.8463,2.8481,2.8521,2.8528,2.854,2.8548,2.854,2.8574,2.8577,2.858,2.8592,2.8596,2.8546,2.8546,2.8546,2.8546,0,2.8249,2.8276,2.8292,2.8327,2.8346,2.8372,2.8393,2.841,2.8419,2.8434,2.8468,2.8492,2.8522,2.8532,2.854,2.8573,2.8571,2.8571,2.8565,2.8584,2.8595,2.86,2.8546,2.8546,2.8546,2.8546,0,0,2.8265,2.831,2.8316,2.8333,2.8366,2.8387,2.8414,2.8444,2.8459,2.8483,2.8507,2.8544,2.8545,2.8563,2.8573,2.8591,2.8615,2.8589,2.859,2.8594,2.8654,2.8655,2.8659,2.8618,2.8619,2.862,2.8652,0,2.8291,2.8339,2.8355,2.8396,2.8421,2.8433,2.8456,2.8479,2.8495,2.8519,2.8536,2.8562,2.856,2.8572,2.8589,2.8608,2.8627,2.8606,2.8641,2.8642,2.8635,2.8665,2.8666,2.8695,2.8656,2.8657,2.8658,0,2.8327,2.8353,2.8396,2.8428,2.8439,2.846,2.849,2.8513,2.854,2.855,2.8571,2.858,2.861,2.8602,2.8643,2.8628,2.8643,2.8655,2.8656,2.8661,2.8652,2.8672,2.8705,2.871,2.8665,2.8664,2.8664,0,2.8336,2.8382,2.8414,2.8428,2.8465,2.848,2.8496,2.8523,2.8541,2.8567,2.8579,2.8608,2.8624,2.8647,2.8665,2.8657,2.8705,2.8698,2.8715,2.8714,2.8725,2.8724,2.8762,2.8733,2.8733,2.8733,2.8733,0,2.8364,2.839,2.8419,2.8439,2.8469,2.8488,2.8517,2.8534,2.8558,2.8582,2.8593,2.8615,2.8636,2.8662,2.8676,2.8709,2.8715,2.8725,2.8729,2.8725,2.8724,2.8736,2.8735,2.8734,2.8734,2.8733,2.8733,0,2.8379,2.8399,2.8436,2.8469,2.8478,2.8499,2.8527,2.8547,2.8564,2.8594,2.8602,2.8628,2.8658,2.8678,2.8716,2.8726,2.8762,2.8764,2.8753,2.8755,2.8772,2.8771,2.882,2.8828,2.8792,2.8792,2.8792,0,2.8396,2.8417,2.8452,2.847,2.8486,2.8513,2.8532,2.8551,2.857,2.8604,2.862,2.8651,2.8678,2.8726,2.8748,2.8778,2.8782,2.8797,2.8787,2.8783,2.8784,2.8783,2.8786,2.8799,2.8799,2.88,2.88,0,2.8424,2.8434,2.846,2.8491,2.8513,2.8538,2.8563,2.8577,2.86,2.8621,2.8653,2.8673,2.8713,2.8745,2.8777,2.8794,2.8802,2.8803,2.8809,2.8806,2.8799,2.8804,2.8759,2.8802,2.8802,2.8802,2.8801,2.8801,2.8442,2.8462,2.8491,2.852,2.8541,2.8565,2.8586,2.8605,2.8632,2.8667,2.8676,2.871,2.8738,2.8782,2.88,2.8827,2.8825,2.8833,2.8835,2.8837,2.8838,2.8794,2.8832,2.8832,2.8832,2.8832,2.8832,0,2.8472,2.8492,2.8519,2.8554,2.8578,2.8583,2.8611,2.8631,2.866,2.8686,2.8712,2.8749,2.878,2.8805,2.8837,2.8854,2.8858,2.8861,2.8861,2.8865,2.8837,2.883,2.8858,2.8858,2.8858,2.8858,2.8858,2.8858,2.8491,2.8525,2.8538,2.8583,2.8602,2.8636,2.8652,2.8674,2.8694,2.8736,2.8762,2.8778,2.8804,2.8838,2.8867,2.8874,2.8885,2.8889,2.8896,2.887,2.8867,2.8864,2.8857,2.8891,2.8891,2.8922,2.8922,2.8923]}]]